Track EUTE 8 WEST A (AB 2) now! EUTE 8 WEST A (AB 2) is classified as:
1 26927U 01042A 22182.70778404 -.00000199 00000-0 00000-0 0 9995 2 26927 2.8857 86.9855 0000487 122.8389 303.0131 0.98529745 75902